Dewpoint
53 52 53 52 51 51 51 50 49 49 50 50 50 49 49 48 48 48 48 49 50 50 50 52 52 52 51 51 52 52 52 53 52 42 43 44 44 44 45 44 44 44 45
50 50 49 49 49 48 47 46 47 46 46 46 46 45 44 43 43 43 44 44 45 46 47 49 50 50 48 49 50 49 50 50 49 44 41 42 42 43 43 41 38 38 42
48 47 47 46 45 44 44 43 43 43 43 43 43 42 41 41 40 40 41 41 42 44 44 44 46 46 45 46 47 47 47 47 46 43 39 41 41 42 41 38 36 36 37
45 44 44 43 43 42 41 41 41 41 40 40 40 40 39 39 39 39 39 39 40 40 40 40 40 41 42 45 45 45 45 45 44 42 40 39 39 41 39 35 32 30 28
43 42 41 40 40 39 39 39 39 39 39 39 38 38 38 38 40 39 39 38 37 37 38 38 38 40 43 44 44 43 43 43 43 41 39 38 37 38 38 36 33 28 26
41 40 39 39 38 38 38 38 38 37 38 38 37 37 37 39 42 42 40 37 37 36 36 36 36 39 40 42 43 43 43 41 39 39 38 37 36 37 35 34 30 28 28
40 39 39 38 38 38 37 37 36 36 36 35 35 35 35 35 41 42 42 36 36 35 35 35 37 38 38 38 38 38 39 40 42 39 38 37 36 35 34 32 30 30 28
39 38 38 38 37 37 37 36 35 35 35 36 37 37 34 35 39 40 40 34 34 34 34 35 36 37 36 37 33 33 31 31 32 37 37 38 37 36 35 34 30 26 26
38 38 38 38 37 36 36 35 35 35 34 33 36 37 36 33 38 40 39 35 33 32 35 35 36 35 36 38 32 32 30 30 33 35 35 35 35 36 32 30 28 28 25
38 38 38 38 37 37 36 35 34 34 35 34 36 36 36 34 37 39 40 35 34 33 31 31 33 37 37 37 29 29 29 29 31 31 30 31 32 34 32 27 28 26 24
39 39 38 38 37 37 35 36 36 33 33 35 36 36 35 33 34 39 39 37 34 32 30 29 29 32 37 37 34 26 26 29 31 28 28 27 27 28 28 27 27 24 22
39 39 38 37 38 36 35 36 33 33 33 35 35 34 33 34 37 38 39 39 38 31 29 28 28 32 33 35 34 34 31 30 28 27 26 26 26 26 27 28 28 28 27
39 38 38 37 37 36 35 35 34 34 35 36 35 34 34 34 34 36 38 39 39 34 29 28 30 30 32 34 31 32 29 29 25 26 26 23 26 27 25 25 26 27 26
38 37 36 36 35 34 35 35 35 36 35 34 34 33 34 34 34 33 33 33 36 36 34 31 30 29 31 31 32 28 26 28 25 24 23 24 26 23 24 25 22 22 21
37 37 36 36 37 35 35 35 35 36 34 33 33 34 33 32 33 34 33 31 31 32 32 25 23 25 27 28 27 27 26 27 26 24 24 24 25 25 25 21 22 22 20
36 36 36 36 36 36 34 36 38 38 38 38 38 36 34 36 37 37 38 38 37 35 32 25 23 23 25 27 27 25 26 27 27 26 26 26 25 24 24 23 21 18 19
33 33 33 35 36 37 36 35 34 35 39 39 39 39 39 39 39 39 38 38 37 36 34 28 25 24 24 26 26 26 24 26 26 26 24 24 25 25 26 23 22 21 20
32 35 32 31 31 32 32 32 34 33 33 33 36 38 38 38 38 39 39 38 34 34 32 31 28 25 25 24 25 25 25 25 26 27 26 25 25 25 24 23 24 23 23
35 35 34 32 30 32 32 33 33 33 33 33 33 35 37 37 37 38 38 36 34 33 31 30 28 26 25 24 25 25 25 24 25 25 26 25 25 25 24 25 24 26 25
34 35 36 34 34 34 34 33 33 33 33 33 33 33 34 34 33 33 33 32 33 33 32 30 29 28 27 26 24 25 25 25 25 24 23 25 25 25 25 24 24 24 26
28 31 33 32 32 32 33 33 33 33 32 32 33 34 37 34 32 32 32 32 33 33 33 32 30 30 30 28 27 26 26 26 25 26 25 23 23 24 25 25 24 24 24
26 28 27 29 32 32 32 32 32 32 32 32 32 33 36 34 33 32 32 33 33 34 34 34 33 31 31 31 30 29 28 27 26 26 25 25 24 24 24 24 24 24 23
25 25 24 25 25 27 27 30 31 31 32 32 32 32 32 32 32 32 32 32 32 32 33 33 33 33 33 32 32 31 29 28 28 27 26 25 24 24 23 23 23 23 23
24 24 23 23 23 24 24 24 24 25 25 26 27 29 29 29 31 32 32 32 32 32 32 32 32 32 33 32 32 32 31 31 32 30 28 27 25 25 24 24 23 23 23
23 22 23 23 22 22 22 23 23 23 23 23 24 25 24 24 25 26 26 30 30 32 32 32 32 32 32 32 32 32 32 33 32 32 31 29 28 26 25 24 23 23 23
22 21 21 22 22 21 22 23 23 23 22 23 24 24 22 21 22 22 22 23 23 25 27 29 30 31 32 32 32 33 34 35 34 35 32 30 28 27 27 26 25 24 23
Lifted_Index
-2 -2 -2 -3 -3 -2 -2 -1 -0 0 1 2 2 3 3 4 4 5 5 6 6 6 6 6 6 5 4 4 4 3 3 2 2 2 2 2 2 3 3 4 4 6 6
-2 -2 -2 -2 -2 -2 -1 -0 0 1 1 2 2 3 4 5 6 6 6 6 6 6 6 6 6 5 5 4 4 3 3 2 2 2 2 2 3 3 3 4 5 6 7
-1 -1 -1 -1 -1 -1 -0 0 1 1 2 2 3 4 5 6 7 7 7 6 6 6 6 6 6 6 5 5 5 4 3 3 3 3 3 3 3 3 3 4 5 7 8
-0 0 0 0 0 1 1 1 2 2 2 3 4 5 6 7 7 7 6 6 6 6 6 6 6 6 6 6 6 5 4 3 3 3 3 3 3 3 4 4 5 7 8
2 2 2 2 2 2 3 3 3 4 4 5 5 6 7 7 7 7 7 6 6 6 6 7 7 7 7 7 7 6 6 5 4 4 3 3 4 4 4 5 6 7 8
2 3 3 4 4 4 4 4 5 5 5 6 6 7 7 7 7 7 7 7 7 7 7 7 8 8 8 8 8 8 7 6 5 5 4 4 4 5 5 6 6 7 7
2 3 4 4 4 4 5 5 5 5 6 6 7 7 7 7 7 7 7 7 7 7 7 8 8 9 9 9 9 9 9 8 7 6 5 5 5 6 6 7 7 7 7
3 3 4 4 5 5 5 5 6 6 6 7 7 7 7 7 7 7 7 7 7 8 8 8 9 9 10 10 10 9 9 9 8 8 7 6 7 7 7 8 8 8 8
4 4 4 5 5 5 5 6 6 6 6 6 6 6 6 7 7 7 7 8 8 8 9 9 9 10 11 11 10 10 9 9 9 9 9 8 8 9 9 9 9 9 9
4 4 4 4 5 5 5 5 6 6 6 6 6 6 6 7 7 8 8 8 8 8 9 9 10 11 11 11 11 10 10 9 9 10 10 10 10 10 10 10 11 11 11
3 4 4 4 4 4 5 5 5 5 5 5 5 6 6 7 8 8 9 9 9 9 9 10 11 11 12 11 11 11 10 10 10 10 11 12 12 13 13 13 14 14 14
3 3 3 4 4 4 4 4 5 5 5 5 5 6 7 7 8 8 9 10 10 10 10 11 11 12 12 12 12 12 12 12 12 12 13 14 15 16 16 16 17 17 17
2 2 3 3 3 3 4 4 4 4 4 5 5 6 7 7 7 8 9 10 10 10 11 11 12 12 13 13 14 15 15 15 15 15 15 16 17 18 18 18 18 18 18
2 2 3 3 3 3 3 4 4 4 4 5 5 6 6 7 7 8 8 9 9 10 10 11 11 12 13 15 16 17 18 18 17 17 17 18 18 18 18 18 18 18 17
2 2 3 3 3 3 3 4 4 4 5 5 5 5 6 6 7 7 8 8 9 9 9 10 10 11 13 15 16 17 18 19 18 18 18 18 18 18 18 18 18 17 16
3 3 3 3 3 3 3 4 4 5 5 5 5 6 6 6 7 7 7 8 9 9 9 9 9 10 12 14 15 17 18 19 19 19 19 18 18 18 18 18 17 16 15
5 5 5 5 4 4 4 4 5 5 6 6 6 6 6 7 7 7 8 8 9 9 9 8 9 10 12 13 15 17 18 19 19 19 19 18 18 18 17 17 16 16 15
7 7 7 6 6 6 6 6 6 6 6 6 7 7 7 7 7 7 8 8 8 8 9 9 10 11 12 14 15 17 18 18 18 18 18 18 18 18 17 17 16 15 15
8 8 8 8 8 8 8 8 7 7 7 7 7 7 7 7 7 7 8 8 8 8 9 9 10 11 12 14 16 17 17 18 18 18 18 18 18 18 17 16 16 15 15
9 9 9 9 9 9 9 9 9 8 8 7 7 7 7 8 7 7 8 8 8 8 9 9 10 11 12 13 15 16 17 17 17 17 17 18 18 17 17 16 16 16 15
10 10 10 10 10 9 9 9 9 8 8 7 7 7 8 8 8 8 8 9 9 9 10 10 10 11 11 12 13 14 15 15 16 16 17 17 17 17 17 17 16 16 16
13 13 12 12 12 11 10 10 9 8 8 8 8 8 8 8 8 8 9 10 10 10 11 11 11 11 11 11 12 12 13 13 14 14 15 16 16 17 17 17 16 16 16
14 14 14 14 13 13 12 12 11 10 10 10 10 10 10 10 10 10 10 11 11 12 12 12 12 11 11 12 12 12 12 12 12 12 13 14 15 15 16 16 16 16 16
13 13 13 13 13 14 14 13 13 13 13 13 13 13 13 12 12 12 12 13 13 13 13 13 13 13 12 13 13 12 12 12 12 12 12 12 12 13 14 15 15 15 15
12 12 12 12 12 13 13 13 13 14 14 14 14 14 14 14 14 14 14 15 15 15 15 15 15 14 14 14 14 14 13 13 13 13 12 12 11 11 12 13 13 14 14
12 11 11 11 12 12 12 13 13 13 13 14 14 14 14 14 14 14 15 15 15 16 16 16 16 16 15 15 15 15 14 14 14 14 13 13 12 11 11 11 12 13 13